Location: Newark
(40.3500°N, 15.2333°E)
Time: 01:05:43
(UTC+00:00)

NOAA 19 - Pass Details

Date: 28 February 2020
Orbit: 842 x 860 km, 99.2° (Epoch: 06 April)

Event Time Altitude Azimuth Distance (km) Brightness Sun altitude
Rises 04:11:03 0° 24° (NNE) 3,425 8.7 -16.8°
Reaches altitude 10° 04:13:40 10° 33° (NNE) 2,488 8.1 -16.3°
Maximum altitude 04:18:38 34° 97° (E) 1,389 7.1 -15.4°
Drops below altitude 10° 04:23:34 10° 161° (SSE) 2,483 7.9 -14.4°
Sets 04:26:10 0° 171° (S) 3,417 8.5 -14.0°
